Tracking 25195 objects as of 20-Jan-2022
HD Live streaming from Space Station
objects crossing your sky now

STARLINK-3199

Track STARLINK-3199 now!
10-day predictions
STARLINK-3199 is classified as:


NORAD ID: 49760
Int'l Code: 2021-115AN
Perigee: 450.1 km
Apogee: 453.8 km
Inclination: 53.2 °
Period: 93.5 minutes
Semi major axis: 6822 km
RCS: Unknown
Launch date: December 2, 2021
Source: United States (US)
Launch site: AIR FORCE EASTERN TEST RANGE (AFETR)
aabbcc
Your satellite tracking list
Your tracking list is empty




NASA's NSSDC Master Catalog

Two Line Element Set (TLE):
1 49760U 21115AN  22020.58334491 -.00060456  00000-0 -14729-2 0  9997
2 49760  53.2161  88.1458 0002754  15.0899 174.8180 15.40436868  3614
Source of the keplerian elements: AFSPC